Probability
0 0 0 0 0 0 0 0 0 0 0 0 0 0 0 0 0 0 0 0 0 0 0 0 0 0 0 3 3 3 0 0 0 0 0 0 0 0 0 0 0 0 0 0
0 0 0 0 0 0 0 0 0 0 0 0 0 0 0 0 0 0 0 0 0 0 0 0 0 0 0 0 0 0 0 0 0 0 0 0 0 0 0 0 0 0 0 0
0 0 0 0 0 0 0 0 0 0 0 0 0 0 0 0 0 0 0 0 0 0 0 0 0 0 0 0 0 0 0 0 0 0 0 0 0 0 0 0 0 0 0 0
0 0 0 0 0 0 0 0 0 0 0 0 0 0 0 0 0 0 0 0 0 0 0 0 0 0 0 0 0 0 0 0 0 0 0 0 0 0 0 0 0 0 0 0
0 0 0 0 0 0 0 0 0 0 0 0 0 0 0 0 0 0 0 0 0 0 0 0 0 0 0 0 3 3 0 0 0 0 0 0 0 0 0 0 0 0 0 0
0 0 0 0 0 0 0 0 0 0 0 0 0 0 0 0 0 0 0 0 0 0 0 0 0 0 0 3 3 3 0 0 0 0 0 0 0 0 0 0 0 0 0 0
0 0 0 0 0 0 0 0 0 0 0 0 0 0 0 0 0 0 0 0 0 0 0 0 0 0 0 0 0 3 0 0 0 0 0 0 0 0 0 0 0 0 0 0
0 0 0 0 0 0 0 0 0 0 0 0 0 0 0 0 0 0 0 0 0 0 0 0 0 0 0 0 0 0 0 3 3 0 0 0 0 0 0 0 0 0 0 0
0 0 0 0 0 0 0 0 0 0 0 0 0 0 0 0 0 0 0 0 0 0 0 0 0 0 0 0 0 0 0 3 3 3 0 0 0 0 0 0 0 0 0 0
0 0 0 0 0 0 0 0 0 0 0 0 0 0 0 0 0 0 0 0 0 0 0 0 0 0 0 0 0 0 0 0 3 3 0 0 0 0 0 0 0 0 0 0
0 0 0 0 0 0 0 0 0 0 0 0 0 0 0 0 0 0 0 0 0 0 0 0 0 0 0 0 0 0 0 0 0 0 0 0 0 0 0 0 0 0 0 0
0 0 0 0 0 0 0 0 0 0 0 0 0 0 0 0 0 0 0 0 0 0 0 0 0 0 0 0 0 0 0 0 0 0 0 0 0 0 0 0 0 0 0 0
0 0 0 0 0 0 0 0 0 0 0 0 0 0 0 0 0 0 0 0 0 0 0 0 0 0 0 0 0 0 0 0 0 0 0 0 0 0 0 0 0 0 0 0
0 0 0 0 0 0 0 0 0 0 0 0 0 0 0 0 0 0 0 0 0 0 0 0 0 0 0 0 0 0 0 0 0 0 0 0 0 0 0 0 0 0 0 0
0 0 0 0 0 0 0 0 0 0 0 0 0 0 0 0 0 0 0 0 0 0 0 0 0 0 0 0 0 0 0 0 0 0 0 0 0 0 0 0 0 0 0 0
0 0 0 0 0 0 0 0 0 0 0 0 0 0 0 0 0 0 0 0 0 0 0 0 0 0 0 0 0 0 0 0 0 0 0 0 0 0 0 0 0 0 0 0
0 0 0 0 0 0 0 0 0 0 0 0 0 0 0 0 0 0 0 0 0 0 0 0 0 0 0 0 0 0 0 0 0 0 0 0 0 0 0 0 0 0 0 0
0 0 0 0 0 0 0 0 0 0 0 0 0 0 0 0 0 0 0 0 0 0 0 0 0 0 0 0 0 0 0 0 0 0 0 0 0 0 0 0 0 0 0 0
0 0 0 0 0 0 0 0 0 0 0 0 0 0 0 0 0 0 0 0 0 0 0 0 0 0 0 0 0 0 0 0 0 0 0 0 0 0 0 0 0 0 0 0
0 0 0 0 0 0 0 0 0 0 0 0 0 0 0 0 0 0 0 0 0 0 0 0 0 0 0 0 0 0 0 0 0 0 0 0 0 0 0 0 0 0 0 0
0 0 0 0 0 0 0 0 0 0 0 0 0 0 0 0 0 0 0 0 0 0 0 0 0 0 0 0 0 0 0 0 0 0 0 0 0 0 0 0 0 0 0 0
0 0 0 0 0 0 0 0 0 0 0 0 0 0 0 0 0 0 0 0 0 0 0 0 0 0 0 0 0 0 0 0 0 0 0 0 0 0 0 0 0 0 0 0
0 0 0 0 0 0 0 0 0 0 0 0 0 0 0 0 0 0 0 0 0 0 0 0 0 0 0 0 0 0 0 0 0 0 0 0 0 0 0 0 0 0 0 0
0 0 0 0 0 0 0 0 0 0 0 0 0 0 0 0 0 0 0 0 0 0 0 0 0 0 0 0 0 0 0 0 0 0 0 0 0 0 0 0 0 0 0 0
0 0 0 0 0 0 0 0 0 0 0 0 0 0 0 0 0 0 0 0 0 0 0 0 0 0 0 0 0 0 0 0 0 0 0 0 0 0 0 0 0 0 0 0
0 0 0 0 0 0 0 0 0 0 0 0 0 0 0 0 0 0 0 0 0 0 0 0 0 0 0 0 0 0 0 0 0 0 0 0 0 0 0 0 0 0 0 0
Height
5608 5611 5614 5619 5624 5630 5635 5640 5646 5653 5659 5664 5670 5677 5682 5687 5693 5699 5705 5711 5717 5722 5728 5733 5737 5742 5747 5752 5756 5760 5764 5768 5771 5775 5778 5781 5784 5786 5789 5790 5792 5793 5795 5796
5604 5607 5612 5614 5618 5622 5626 5632 5639 5645 5650 5655 5661 5666 5672 5677 5683 5689 5695 5701 5707 5712 5718 5723 5728 5732 5737 5742 5746 5751 5755 5759 5763 5766 5769 5772 5775 5778 5780 5782 5784 5785 5787 5788
5600 5605 5606 5608 5611 5616 5620 5626 5632 5637 5642 5646 5651 5656 5662 5668 5673 5679 5685 5691 5697 5703 5708 5713 5718 5722 5727 5732 5737 5741 5745 5750 5753 5757 5760 5763 5766 5769 5772 5773 5776 5777 5779 5780
5597 5599 5601 5603 5607 5610 5615 5621 5625 5629 5633 5638 5643 5647 5654 5659 5664 5670 5677 5683 5688 5693 5698 5703 5708 5712 5717 5722 5727 5731 5735 5740 5744 5748 5751 5754 5758 5761 5763 5765 5767 5769 5770 5772
5594 5595 5596 5599 5603 5606 5611 5615 5619 5622 5626 5630 5635 5639 5645 5650 5656 5662 5668 5674 5679 5683 5688 5693 5698 5702 5707 5712 5716 5721 5725 5730 5734 5738 5742 5745 5748 5751 5754 5756 5758 5760 5762 5763
5591 5592 5593 5596 5599 5602 5606 5610 5613 5616 5619 5623 5628 5631 5637 5642 5649 5655 5659 5664 5669 5674 5678 5683 5687 5692 5697 5702 5706 5711 5715 5720 5724 5728 5732 5735 5739 5741 5744 5747 5749 5751 5753 5754
5588 5589 5590 5592 5594 5597 5600 5604 5607 5609 5612 5616 5621 5623 5629 5635 5640 5645 5650 5655 5659 5664 5668 5673 5677 5682 5687 5692 5696 5701 5705 5710 5714 5718 5722 5725 5729 5732 5734 5737 5739 5741 5743 5745
5585 5587 5587 5589 5591 5593 5596 5600 5603 5606 5608 5612 5615 5617 5623 5628 5632 5636 5640 5644 5649 5653 5658 5663 5668 5672 5677 5682 5686 5691 5695 5699 5703 5707 5711 5715 5718 5722 5725 5727 5730 5732 5734 5735
5582 5584 5585 5587 5588 5591 5592 5595 5598 5601 5603 5605 5608 5612 5616 5620 5623 5627 5631 5635 5639 5644 5649 5653 5658 5662 5667 5672 5676 5681 5685 5689 5692 5696 5700 5704 5708 5711 5715 5717 5720 5722 5724 5726
5580 5582 5583 5584 5585 5587 5589 5591 5593 5595 5596 5598 5602 5605 5609 5613 5616 5619 5623 5626 5630 5634 5639 5643 5648 5652 5657 5661 5665 5670 5674 5678 5682 5686 5690 5694 5697 5701 5704 5707 5710 5712 5714 5716
5578 5579 5580 5581 5581 5583 5585 5587 5588 5590 5592 5594 5596 5602 5603 5606 5608 5611 5615 5618 5621 5625 5629 5634 5638 5642 5647 5651 5655 5659 5664 5668 5672 5675 5679 5683 5686 5690 5694 5697 5700 5702 5704 5706
5575 5576 5577 5578 5578 5579 5581 5582 5583 5585 5587 5588 5590 5597 5596 5599 5601 5603 5606 5609 5612 5616 5620 5624 5628 5632 5636 5641 5645 5649 5653 5657 5661 5665 5669 5672 5676 5679 5683 5686 5689 5692 5694 5696
5572 5573 5573 5574 5576 5576 5576 5577 5578 5580 5582 5583 5585 5591 5590 5592 5594 5596 5598 5601 5604 5607 5611 5614 5618 5622 5626 5630 5635 5639 5643 5647 5651 5655 5659 5662 5665 5669 5672 5676 5679 5681 5684 5686
5569 5569 5570 5570 5570 5570 5571 5573 5573 5575 5576 5578 5580 5583 5584 5585 5587 5589 5591 5593 5595 5598 5601 5605 5609 5612 5616 5620 5624 5629 5633 5637 5641 5645 5649 5652 5655 5658 5662 5665 5668 5671 5674 5676
5565 5566 5566 5566 5566 5566 5567 5567 5568 5570 5571 5573 5575 5576 5577 5578 5580 5581 5583 5585 5588 5590 5593 5596 5600 5603 5607 5610 5614 5618 5623 5626 5630 5634 5638 5642 5645 5648 5651 5654 5657 5660 5663 5666
5561 5562 5562 5562 5561 5561 5562 5562 5563 5564 5565 5567 5568 5570 5571 5572 5573 5574 5576 5578 5581 5583 5585 5588 5591 5594 5598 5601 5605 5608 5612 5616 5620 5624 5628 5631 5635 5638 5641 5644 5647 5650 5653 5656
5558 5558 5557 5558 5557 5557 5557 5558 5557 5559 5559 5561 5562 5564 5564 5566 5566 5567 5569 5571 5573 5575 5577 5580 5582 5585 5588 5591 5595 5598 5602 5606 5610 5613 5617 5621 5625 5628 5632 5635 5638 5640 5643 5646
5554 5553 5553 5553 5553 5553 5554 5552 5553 5553 5554 5555 5556 5557 5557 5559 5560 5560 5561 5563 5565 5567 5569 5571 5574 5576 5579 5582 5585 5589 5592 5596 5600 5603 5607 5611 5615 5618 5622 5625 5628 5630 5633 5636
5550 5549 5549 5549 5548 5548 5549 5548 5548 5548 5549 5549 5549 5550 5551 5552 5553 5554 5554 5556 5557 5559 5561 5563 5566 5568 5570 5573 5576 5579 5583 5586 5590 5593 5597 5601 5605 5608 5612 5615 5618 5621 5623 5626
5546 5545 5545 5544 5543 5543 5545 5543 5542 5543 5543 5543 5543 5544 5544 5544 5546 5548 5547 5548 5550 5551 5553 5555 5557 5559 5562 5564 5567 5570 5573 5576 5580 5584 5587 5591 5595 5598 5602 5605 5608 5611 5614 5616
5542 5541 5540 5539 5538 5539 5539 5537 5537 5539 5539 5537 5537 5537 5537 5537 5538 5540 5540 5541 5542 5543 5545 5547 5549 5551 5553 5555 5558 5561 5564 5567 5570 5574 5578 5582 5585 5589 5593 5596 5599 5602 5604 5607
5538 5537 5536 5534 5534 5536 5533 5532 5532 5532 5531 5531 5531 5531 5531 5531 5532 5532 5533 5534 5535 5536 5537 5539 5540 5542 5543 5545 5549 5552 5555 5558 5561 5565 5569 5572 5576 5580 5583 5586 5589 5592 5595 5597
5534 5533 5531 5531 5531 5529 5527 5526 5526 5525 5525 5525 5525 5524 5525 5525 5525 5526 5526 5527 5528 5529 5530 5532 5533 5534 5535 5537 5540 5543 5546 5549 5552 5556 5560 5563 5567 5570 5574 5577 5580 5582 5585 5588
5530 5528 5526 5525 5525 5523 5522 5521 5520 5519 5519 5519 5518 5518 5518 5518 5518 5519 5519 5520 5521 5522 5523 5524 5526 5527 5528 5530 5532 5535 5538 5541 5544 5547 5551 5555 5558 5562 5565 5568 5571 5573 5576 5579
5525 5523 5521 5520 5519 5518 5517 5515 5515 5514 5513 5512 5512 5512 5511 5511 5512 5512 5513 5514 5514 5515 5516 5518 5519 5520 5522 5523 5525 5528 5530 5533 5536 5539 5543 5546 5550 5553 5556 5559 5562 5565 5567 5570
5519 5518 5516 5515 5514 5512 5512 5510 5509 5508 5507 5506 5506 5505 5505 5505 5505 5506 5506 5507 5508 5509 5510 5511 5513 5514 5516 5517 5519 5521 5524 5526 5529 5532 5536 5539 5542 5545 5548 5551 5554 5556 5558 5560
Wind_Speed
22 25 29 31 32 35 37 42 43 42 42 44 47 48 48 49 49 49 49 49 48 48 48 48 47 47 47 46 46 45 45 44 44 44 43 42 40 39 38 37 37 36 35 35
19 22 24 28 31 33 35 39 41 41 42 44 44 46 47 48 49 49 49 48 48 48 48 47 47 47 47 47 46 46 46 45 45 44 44 43 41 40 40 39 38 37 37 36
17 18 21 25 29 31 33 35 37 37 39 43 44 46 46 47 48 48 48 47 47 47 47 48 47 47 47 47 47 46 46 46 45 44 44 43 42 41 40 39 39 38 38 37
14 17 20 22 25 28 30 31 33 34 36 39 42 45 45 46 47 48 47 46 46 46 47 47 47 47 47 47 46 46 46 46 46 45 44 42 42 41 41 40 40 40 39 39
12 15 19 21 23 25 27 28 29 31 33 37 39 41 43 44 45 46 46 45 45 45 46 46 47 47 47 47 47 47 47 46 46 45 44 43 42 42 42 42 41 40 40 40
11 13 16 19 20 22 25 27 27 29 31 34 36 39 41 42 42 42 43 44 44 44 44 45 46 46 46 46 46 47 47 47 46 46 45 44 43 43 43 42 41 42 41 41
9 11 13 16 18 19 22 25 25 26 30 32 33 36 39 39 40 41 42 42 43 43 44 45 45 45 45 45 45 46 46 47 47 47 46 45 45 44 43 43 42 42 42 41
10 9 11 14 16 18 20 23 25 25 28 30 32 32 35 36 37 38 39 40 41 42 44 45 45 45 45 45 44 45 45 45 46 46 46 46 46 45 44 43 43 42 41 41
11 11 11 12 14 17 19 21 23 24 26 28 29 29 31 33 35 36 37 38 41 42 43 44 45 45 45 45 44 44 44 45 45 46 46 46 46 45 45 45 44 43 42 41
12 12 12 13 14 16 19 20 21 23 24 26 27 28 30 30 32 34 36 37 39 41 42 43 44 45 46 45 45 44 44 44 44 45 46 46 46 45 45 45 44 42 42 42
12 12 13 14 15 17 18 20 21 22 23 25 26 26 28 28 29 31 33 35 37 38 41 42 43 44 45 46 45 45 45 45 45 44 45 45 46 46 45 45 44 43 43 43
11 12 13 14 16 18 19 20 21 22 22 24 24 25 25 26 27 28 30 33 35 36 38 40 42 43 44 45 45 45 45 45 45 45 44 44 45 45 45 44 44 44 43 42
11 13 14 14 15 17 19 20 21 21 22 22 23 23 24 25 26 27 29 31 33 34 36 37 39 41 43 45 45 45 45 45 45 45 44 43 43 43 44 44 45 44 43 43
12 13 14 15 15 16 17 20 22 22 22 22 22 23 22 23 25 26 27 29 31 32 34 36 37 38 41 44 45 45 46 45 45 45 44 43 43 43 44 45 44 44 43 43
13 13 14 15 16 17 17 19 21 23 24 23 22 22 22 23 25 26 26 27 28 30 32 34 35 37 38 41 43 44 45 45 45 45 44 44 43 43 43 44 44 44 43 42
14 14 13 14 15 16 17 18 20 22 24 24 23 22 22 23 25 26 27 27 27 29 31 33 34 35 36 38 40 42 43 44 44 45 44 44 43 43 43 43 43 43 43 42
13 14 14 14 15 16 16 17 19 21 23 24 24 25 24 24 24 25 26 27 29 29 30 32 33 35 36 37 38 40 41 42 43 43 43 43 43 42 42 42 43 43 42 41
13 14 14 15 15 16 17 17 18 20 21 22 23 24 25 24 24 26 27 27 27 28 30 31 31 33 34 36 37 38 39 40 41 42 43 43 42 42 42 42 42 42 41 41
14 15 15 15 15 15 16 17 18 19 20 21 22 23 24 25 25 26 28 28 28 28 29 30 31 32 33 34 35 37 37 38 39 39 40 41 41 41 41 40 41 41 40 40
15 16 16 16 16 15 15 16 17 19 20 21 22 23 23 24 24 25 27 28 28 28 28 29 30 31 32 33 35 35 37 38 38 39 39 39 39 39 39 39 39 39 39 39
14 15 15 16 17 16 16 17 17 18 19 21 21 22 22 22 22 23 25 27 28 28 28 28 29 30 31 33 34 34 35 37 38 38 38 38 38 38 39 39 38 38 38 38
13 14 15 16 17 17 17 17 18 19 19 20 20 21 21 21 22 22 23 25 27 27 27 27 28 29 31 33 33 33 34 35 36 37 37 37 37 38 38 38 38 38 37 37
14 14 15 16 17 17 17 18 18 19 19 19 20 21 21 21 21 22 22 23 24 26 26 26 27 28 29 31 33 33 33 33 34 35 36 36 36 36 36 36 37 37 37 37
15 15 16 16 17 18 17 18 18 19 19 20 20 20 21 21 21 21 22 23 23 24 25 26 26 26 27 28 29 31 32 33 33 33 34 35 35 35 35 35 36 36 36 36
16 16 16 16 17 18 18 18 18 18 18 19 20 20 20 20 20 20 19 20 21 22 24 24 24 26 26 26 26 28 30 31 31 32 32 33 33 34 34 34 35 35 35 35
18 17 17 16 17 17 18 18 18 18 18 19 19 20 20 21 20 20 19 19 20 22 23 23 23 24 25 26 26 26 28 30 30 30 31 31 32 33 33 33 33 34 34 34
Wind_Direction
239 236 234 231 229 228 227 226 226 227 228 229 229 228 229 230 230 231 231 232 232 232 233 234 234 235 235 235 236 237 238 239 241 242 243 245 247 249 251 252 253 255 256 258
241 239 236 231 229 226 226 226 226 227 229 230 229 229 229 230 231 231 231 231 232 233 233 234 234 235 235 236 236 237 238 240 241 242 243 245 247 248 250 252 253 254 256 258
244 242 237 232 229 226 226 226 227 228 228 230 230 231 230 230 231 230 231 232 233 234 234 235 235 235 235 236 236 237 239 240 241 242 244 245 246 248 250 252 254 255 256 258
243 241 238 235 232 227 227 227 230 230 230 231 232 233 231 231 232 231 232 232 233 234 235 235 235 236 235 235 235 236 238 240 241 243 244 246 247 249 250 252 254 255 257 258
250 243 240 237 233 229 227 226 230 231 233 234 233 235 233 233 233 233 233 234 233 233 233 234 234 235 236 236 236 236 238 239 241 243 245 246 247 248 250 251 253 255 257 259
257 246 240 237 231 230 227 227 228 230 233 235 234 236 235 234 235 235 236 235 234 233 233 233 234 235 236 237 237 237 238 239 241 243 244 246 246 248 250 251 253 255 257 259
250 246 239 233 229 227 226 226 227 228 230 233 234 237 237 235 235 236 236 235 234 233 233 234 234 235 236 237 238 239 240 240 240 242 243 245 246 248 250 251 253 255 257 259
249 241 236 231 230 226 226 227 230 232 234 235 234 237 238 236 236 236 236 236 235 234 234 234 235 236 237 237 238 239 240 240 241 241 242 244 246 247 249 251 252 254 256 258
250 244 240 233 232 227 228 230 233 237 239 239 239 240 240 238 238 238 237 237 236 236 235 235 235 236 237 238 238 239 240 241 241 242 242 243 245 247 249 251 252 253 255 257
253 250 241 235 235 232 232 233 233 236 242 243 243 242 241 241 241 239 239 239 238 237 236 235 235 235 236 238 238 239 240 241 242 242 243 244 245 246 248 250 251 252 254 256
250 252 248 243 241 237 234 234 237 240 240 242 246 246 244 245 244 244 243 241 238 238 237 236 235 235 236 237 239 240 240 241 241 242 243 245 246 246 248 249 250 252 254 256
258 257 254 250 246 243 240 241 241 242 241 242 246 248 248 248 247 248 246 243 240 239 238 237 236 236 236 237 238 239 240 241 242 243 244 245 246 246 246 247 249 251 253 255
267 263 260 256 250 247 244 241 242 243 243 246 248 249 249 250 248 248 247 245 243 241 240 238 237 236 237 237 238 239 240 241 242 243 245 245 246 246 245 246 248 250 252 254
273 266 264 262 258 251 247 243 243 242 243 248 250 250 248 250 248 247 248 246 244 242 241 239 238 237 237 238 238 238 240 241 242 243 245 245 245 246 246 246 248 249 251 253
276 269 266 264 260 254 252 250 247 245 246 252 250 250 250 251 251 249 249 247 244 242 241 241 240 239 239 239 238 239 240 240 241 243 244 245 245 246 246 247 248 249 250 253
278 273 269 265 260 256 255 253 252 249 249 252 253 250 251 254 253 251 249 245 243 241 241 241 241 240 239 239 239 239 240 240 241 243 244 244 244 245 246 248 248 249 251 253
278 275 274 273 264 259 258 256 254 250 251 254 256 254 254 255 254 252 249 247 245 243 241 241 242 241 239 239 239 239 239 240 241 242 242 243 244 246 247 248 248 249 251 252
277 274 276 279 273 268 264 259 256 252 252 255 258 257 257 258 256 252 250 247 245 244 243 241 241 240 240 239 239 239 239 240 241 242 242 243 244 245 246 247 248 249 250 251
282 276 277 280 280 276 270 264 258 256 255 258 259 259 257 258 256 252 249 247 246 245 243 242 241 240 240 240 240 239 239 240 240 241 242 243 243 243 244 246 248 249 249 250
284 280 277 278 279 279 275 269 265 262 260 260 262 262 260 259 255 249 247 246 245 245 245 244 242 242 241 240 240 240 241 241 241 241 242 242 243 243 244 245 246 247 248 249
286 284 281 278 277 277 277 273 269 265 264 262 263 263 262 259 256 252 249 248 247 248 248 247 245 244 243 240 240 241 242 242 241 241 241 241 242 242 243 244 245 246 247 248
291 286 283 278 277 277 277 275 271 269 268 266 264 262 262 260 256 253 251 250 249 249 249 249 248 247 245 242 241 241 242 242 242 241 241 241 242 242 243 244 244 245 246 248
293 288 285 281 278 278 279 277 275 271 270 269 267 263 261 259 258 254 252 252 251 250 248 249 250 249 246 244 243 242 243 242 241 240 240 240 241 242 243 243 243 244 246 248
294 290 288 284 281 279 278 279 278 275 272 269 268 265 262 259 257 256 253 252 252 252 252 251 250 248 246 245 244 243 242 242 240 239 239 240 240 241 242 243 244 245 247 249
292 291 290 287 283 281 279 279 279 278 276 271 268 266 263 259 257 253 251 251 252 252 252 251 249 246 245 246 245 243 241 240 240 239 238 238 238 240 241 243 245 247 249 250
291 291 291 289 286 284 282 281 280 280 279 275 271 267 264 261 258 254 252 252 254 253 251 250 248 246 244 243 242 242 243 242 240 238 239 239 240 240 242 244 246 247 249 250